Weather History for Covington, KY

Change the Weather History Date:

Saturday, March 23, 2013

  Actual Average Record
Temperature  
Mean Temperature 42 °F 46 °F  
Max Temperature 53 °F 56 °F 84 °F (1907)
Min Temperature 30 °F 36 °F 11 °F (1885)
Degree Days  
Heating Degree Days 23 19  
Month to date heating degree days 655 526  
Since 1 July heating degree days 4365 4353  
Cooling Degree Days 0 0  
Month to date cooling degree days 0 0  
Year to date cooling degree days 0 0  
Moisture  
Dew Point 20 °F    
Average Humidity 41    
Maximum Humidity 56    
Minimum Humidity 26    
Precipitation  
Precipitation 0.00 in 0.13 in 1.30 in (1975)
Month to date precipitation 3.30 2.83  
Year to date precipitation 8.90 8.64  
Snow  
Snow 0.00 in 0.10 in 3.50 in (1896)
Month to date snowfall 5.5 2.6  
Since 1 July snowfall 21.9 21.2  
Snow Depth 0.00 in    
Sea Level Pressure  
Sea Level Pressure 30.00 in    
Wind  
Wind Speed 6 mph (NE)    
Max Wind Speed 17 mph    
Max Gust Speed 22 mph    
Visibility 10 miles    
Events      
T = Trace of Precipitation, MM = Missing Value Source: NWS Daily Summary

Daily Weather History Graph

Daily Weather History Graph

Search for Another Location

Airport:

Trip Planner

Search our weather history database for the weather conditions in past years. The results will help you decide how hot, cold, wet, or windy it might be!

Date:

Astronomy

Mar. 23, 2013 Rise Set
Actual Time 7:37 AM EDT 7:53 PM EDT
Civil Twilight 7:10 AM EDT 8:20 PM EDT
Nautical Twilight 6:39 AM EDT 8:51 PM EDT
Astronomical Twilight 6:07 AM EDT 9:23 PM EDT
Moon 4:21 PM EDT (3/23) 5:11 AM EDT (3/23)
Length of Visible Light 13h 10m
Length of Day
12h 16m
Waxing Gibbous, 85% of the Moon is Illuminated
Mar 23
Waxing Gibbous
Mar 27
Full
Apr 3
Last Quarter
Apr 10
New
Apr 18
First Quarter

Hourly Weather History & Observations

Time (EDT) Temp. Windchill Dew Point Humidity Pressure Visibility Wind Dir Wind Speed Gust Speed Precip Events Conditions
12:52 AM 37.0 °F 34.5 °F 18.0 °F 46% 30.04 in 10.0 mi NNE 3.5 mph - N/A   Mostly Cloudy
1:52 AM 36.0 °F - 17.1 °F 46% 30.04 in 10.0 mi Calm Calm - N/A   Mostly Cloudy
2:52 AM 35.1 °F 32.2 °F 19.0 °F 52% 30.03 in 10.0 mi NE 3.5 mph - N/A   Overcast
3:52 AM 35.1 °F - 21.0 °F 57% 30.02 in 10.0 mi Calm Calm - N/A   Overcast
4:52 AM 35.1 °F 32.2 °F 21.9 °F 59% 30.01 in 10.0 mi NNE 3.5 mph - N/A   Overcast
5:52 AM 35.1 °F - 21.9 °F 59% 30.01 in 10.0 mi Calm Calm - N/A   Overcast
6:52 AM 36.0 °F 31.1 °F 19.9 °F 52% 30.02 in 10.0 mi ENE 5.8 mph - N/A   Overcast
7:52 AM 36.0 °F 33.3 °F 21.9 °F 57% 30.04 in 10.0 mi East 3.5 mph - N/A   Overcast
8:52 AM 36.0 °F 32.1 °F 21.9 °F 57% 30.06 in 10.0 mi East 4.6 mph - N/A   Overcast
10:52 AM 41.0 °F 37.1 °F 19.0 °F 41% 30.06 in 10.0 mi East 5.8 mph - N/A   Mostly Cloudy
11:52 AM 42.1 °F - 19.0 °F 40% 30.06 in 10.0 mi Calm Calm - N/A   Mostly Cloudy
12:52 PM 46.0 °F 44.8 °F 19.0 °F 34% 30.04 in 10.0 mi Variable 3.5 mph - N/A   Scattered Clouds
1:52 PM 50.0 °F - 19.9 °F 31% 30.03 in 10.0 mi Variable 4.6 mph - N/A   Scattered Clouds
2:52 PM 50.0 °F - 19.0 °F 29% 30.01 in 10.0 mi North 4.6 mph - N/A   Partly Cloudy
3:52 PM 50.0 °F - 19.0 °F 29% 29.99 in 10.0 mi Variable 3.5 mph - N/A   Partly Cloudy
4:52 PM 53.1 °F - 19.9 °F 27% 29.96 in 10.0 mi NE 8.1 mph - N/A   Partly Cloudy
5:52 PM 52.0 °F - 19.9 °F 28% 29.95 in 10.0 mi NNE 5.8 mph - N/A   Mostly Cloudy
6:52 PM 48.9 °F - 19.9 °F 32% 29.96 in 10.0 mi ENE 8.1 mph - N/A   Mostly Cloudy
7:52 PM 46.9 °F - 19.9 °F 34% 29.96 in 10.0 mi NE 9.2 mph - N/A   Mostly Cloudy
8:52 PM 46.0 °F 41.4 °F 19.9 °F 35% 29.95 in 10.0 mi NE 9.2 mph - N/A   Overcast
9:52 PM 45.0 °F 40.1 °F 19.9 °F 37% 29.93 in 10.0 mi NE 9.2 mph - N/A   Overcast
10:52 PM 43.0 °F 37.7 °F 19.9 °F 40% 29.91 in 10.0 mi ENE 9.2 mph - N/A   Overcast
11:52 PM 42.1 °F 34.9 °F 21.0 °F 43% 29.88 in 10.0 mi ENE 13.8 mph - N/A   Overcast